CET,Max TemperatureF,Mean TemperatureF,Min TemperatureF,Max Dew PointF,MeanDew PointF,Min DewpointF,Max Humidity, Mean Humidity, Min Humidity, Max Sea Level PressureIn, Mean Sea Level PressureIn, Min Sea Level PressureIn, Max VisibilityMiles, Mean VisibilityMiles, Min VisibilityMiles, Max Wind SpeedMPH, Mean Wind SpeedMPH, Max Gust SpeedMPH,PrecipitationIn, CloudCover, Events, WindDirDegrees
2012-10-1,81,70,60,63,59,55,88,69,43,30.12,30.03,30.01,12,7,6,22,6,,0.00,2,,307
2012-10-2,78,68,59,61,56,50,82,64,29,30.17,30.12,30.09,12,6,6,16,7,,0.00,2,,307
2012-10-3,80,68,56,61,57,50,88,66,32,30.16,30.12,30.06,19,7,6,12,6,,0.00,1,,309
2012-10-4,76,66,55,64,58,48,88,70,46,30.14,30.07,30.01,12,7,5,14,7,,0.00,1,,141
2012-10-5,76,66,55,65,61,55,100,79,56,30.13,30.08,30.06,12,7,6,17,7,,0.00,1,,174
2012-10-6,77,68,59,67,63,55,83,74,57,30.15,30.11,30.09,12,7,6,16,10,,0.00,1,,128
2012-10-7,82,72,61,66,63,59,94,73,44,30.11,30.05,30.01,9,6,5,15,6,,0.00,3,,316
2012-10-8,81,73,65,64,58,50,78,60,24,30.04,30.00,29.98,19,7,6,23,12,31,0.00,2,,313
2012-10-9,85,74,64,66,63,59,94,71,31,30.01,29.94,29.89,19,7,6,16,8,,0.00,1,,311
2012-10-10,82,73,64,63,60,55,88,67,28,29.92,29.89,29.86,12,7,6,22,11,,0.00,2,,314
2012-10-11,82,72,63,66,62,57,83,71,36,29.92,29.86,29.80,12,6,6,12,6,,0.00,2,,319
2012-10-12,84,74,64,67,60,54,83,67,30,29.92,29.86,29.80,12,6,5,20,5,,0.00,2,Thunderstorm,320
2012-10-13,73,68,62,64,62,60,94,82,62,29.92,29.87,29.83,7,6,2,13,5,,0.00,3,Rain-Thunderstorm,307
2012-10-14,,,,,,,,,,,,,,,,,,,,,,
2012-10-15,84,73,62,63,58,52,83,64,39,29.83,29.71,29.65,9,6,2,21,8,,0.00,3,Rain-Thunderstorm,168
2012-10-16,74,64,55,54,48,43,72,52,24,30.12,30.04,29.95,19,7,6,18,10,,0.00,2,,315
2012-10-17,74,62,51,59,55,48,94,71,50,30.15,30.11,30.09,12,6,6,17,6,,0.00,1,,102
2012-10-18,77,66,56,67,59,50,83,71,43,30.10,30.03,29.98,12,7,6,23,9,34,0.00,1,,99
2012-10-19,77,74,71,70,68,64,94,83,65,30.05,30.03,29.98,7,6,3,23,20,30,0.00,3,Rain,114
2012-10-20,77,74,71,71,67,62,90,79,61,30.06,30.02,29.98,6,6,5,21,18,,0.00,4,,115
2012-10-21,78,74,71,72,68,64,94,80,65,30.01,29.98,29.95,6,6,5,21,15,,0.00,5,,121
2012-10-22,81,74,66,68,64,57,88,79,59,30.06,30.01,29.98,9,6,4,15,8,,0.00,4,Rain-Thunderstorm,311
2012-10-23,78,70,62,61,55,50,88,62,33,30.06,30.03,29.98,12,7,6,12,8,,0.00,2,Rain,312
2012-10-24,74,64,55,61,56,48,88,75,53,30.01,29.93,29.89,12,6,6,15,5,,0.01,2,Rain-Thunderstorm,312
2012-10-25,74,64,54,61,58,54,100,80,53,29.94,29.89,29.86,12,6,6,13,7,,0.00,1,,246
2012-10-26,72,68,64,64,61,55,83,77,67,29.86,29.70,29.56,12,6,6,17,9,,0.00,3,Rain,122
2012-10-27,73,66,60,64,59,54,100,78,55,29.57,29.46,29.39,9,6,3,15,5,,0.47,5,Rain-Thunderstorm,241
2012-10-28,59,54,50,52,40,30,77,57,23,29.77,29.64,29.44,12,6,5,22,15,34,0.02,4,Rain,291
2012-10-29,62,54,47,45,41,36,82,63,33,29.95,29.86,29.77,12,6,6,25,14,29,0.00,4,Rain,306
2012-10-30,66,54,41,50,44,37,87,70,38,29.95,29.81,29.62,12,6,6,15,5,,0.00,2,,55
2012-10-31,66,60,54,63,55,48,100,74,56,29.63,29.43,29.33,9,6,3,23,10,36,0.20,5,Rain,202